TimeCDT,TemperatureF,Dew PointF,Humidity,Sea Level PressureIn,VisibilityMPH,Wind Direction,Wind SpeedMPH,Gust SpeedMPH,PrecipitationIn,Events,Conditions,WindDirDegrees,DateUTC
12:15 AM,53.6,48.2,82,30.12,10.0,East,4.6,-,N/A,,Clear,100,2013-10-09 05:15:00
12:35 AM,50.0,48.2,94,30.12,10.0,ESE,3.5,-,N/A,,Clear,110,2013-10-09 05:35:00
12:55 AM,50.0,48.2,94,30.12,10.0,Calm,Calm,-,N/A,,Clear,0,2013-10-09 05:55:00
1:15 AM,50.0,48.2,94,30.12,10.0,East,3.5,-,N/A,,Clear,100,2013-10-09 06:15:00
1:35 AM,50.0,48.2,94,30.12,10.0,ESE,3.5,-,N/A,,Clear,110,2013-10-09 06:35:00
1:55 AM,50.0,48.2,94,30.12,10.0,Calm,Calm,-,N/A,,Clear,0,2013-10-09 06:55:00
2:15 AM,50.0,48.2,94,30.12,10.0,Calm,Calm,-,N/A,,Mostly Cloudy,0,2013-10-09 07:15:00
2:35 AM,50.0,48.2,94,30.11,10.0,Calm,Calm,-,N/A,,Mostly Cloudy,0,2013-10-09 07:35:00
2:55 AM,48.2,48.2,100,30.11,10.0,ESE,3.5,-,N/A,,Mostly Cloudy,110,2013-10-09 07:55:00
3:15 AM,48.2,48.2,100,30.11,10.0,Calm,Calm,-,N/A,,Mostly Cloudy,0,2013-10-09 08:15:00
3:35 AM,50.0,48.2,94,30.11,10.0,Calm,Calm,-,N/A,,Overcast,0,2013-10-09 08:35:00
3:55 AM,50.0,48.2,94,30.11,10.0,Calm,Calm,-,N/A,,Overcast,0,2013-10-09 08:55:00
4:15 AM,50.0,48.2,94,30.11,10.0,Calm,Calm,-,N/A,,Mostly Cloudy,0,2013-10-09 09:15:00
4:35 AM,50.0,48.2,94,30.11,10.0,ESE,3.5,-,N/A,,Mostly Cloudy,110,2013-10-09 09:35:00
4:55 AM,50.0,48.2,94,30.12,10.0,Calm,Calm,-,N/A,,Mostly Cloudy,0,2013-10-09 09:55:00
5:15 AM,50.0,48.2,94,30.12,10.0,Calm,Calm,-,N/A,,Scattered Clouds,0,2013-10-09 10:15:00
5:35 AM,50.0,48.2,94,30.12,10.0,East,3.5,-,N/A,,Partly Cloudy,100,2013-10-09 10:35:00
5:55 AM,50.0,48.2,94,30.12,10.0,Calm,Calm,-,N/A,,Partly Cloudy,0,2013-10-09 10:55:00
6:15 AM,50.0,48.2,94,30.13,10.0,Calm,Calm,-,N/A,,Scattered Clouds,0,2013-10-09 11:15:00
6:35 AM,50.0,48.2,94,30.13,10.0,Calm,Calm,-,N/A,,Mostly Cloudy,0,2013-10-09 11:35:00
6:55 AM,50.0,48.2,94,30.14,10.0,Calm,Calm,-,N/A,,Scattered Clouds,0,2013-10-09 11:55:00
7:15 AM,50.0,48.2,94,30.14,10.0,Calm,Calm,-,N/A,,Mostly Cloudy,0,2013-10-09 12:15:00
7:35 AM,50.0,50.0,100,30.15,10.0,Calm,Calm,-,N/A,,Partly Cloudy,0,2013-10-09 12:35:00
7:55 AM,51.8,50.0,94,30.15,10.0,SE,3.5,-,N/A,,Scattered Clouds,130,2013-10-09 12:55:00
8:15 AM,55.4,53.6,94,30.16,10.0,Calm,Calm,-,N/A,,Mostly Cloudy,0,2013-10-09 13:15:00
8:35 AM,59.0,53.6,82,30.16,10.0,South,4.6,-,N/A,,Partly Cloudy,170,2013-10-09 13:35:00
8:55 AM,60.8,55.4,82,30.17,10.0,South,5.8,-,N/A,,Clear,170,2013-10-09 13:55:00
9:15 AM,62.6,55.4,77,30.17,10.0,South,8.1,-,N/A,,Clear,170,2013-10-09 14:15:00
9:35 AM,64.4,57.2,77,30.18,10.0,South,5.8,-,N/A,,Clear,170,2013-10-09 14:35:00
9:55 AM,66.2,59.0,78,30.18,10.0,SSW,9.2,-,N/A,,Clear,200,2013-10-09 14:55:00
10:15 AM,66.2,59.0,78,30.18,10.0,South,6.9,-,N/A,,Clear,190,2013-10-09 15:15:00
10:35 AM,68.0,59.0,73,30.18,10.0,SSW,6.9,-,N/A,,Clear,200,2013-10-09 15:35:00
10:55 AM,69.8,59.0,68,30.18,10.0,WSW,6.9,-,N/A,,Clear,240,2013-10-09 15:55:00
11:15 AM,71.6,60.8,69,30.18,10.0,South,3.5,-,N/A,,Clear,190,2013-10-09 16:15:00
11:35 AM,73.4,60.8,65,30.17,10.0,West,5.8,-,N/A,,Clear,260,2013-10-09 16:35:00
11:55 AM,73.4,62.6,69,30.17,10.0,SW,8.1,-,N/A,,Clear,230,2013-10-09 16:55:00
12:15 PM,73.4,60.8,65,30.17,10.0,WSW,6.9,-,N/A,,Mostly Cloudy,240,2013-10-09 17:15:00
12:35 PM,73.4,62.6,69,30.16,10.0,SW,3.5,-,N/A,,Overcast,220,2013-10-09 17:35:00
12:55 PM,73.4,62.6,69,30.16,10.0,WNW,3.5,-,N/A,,Overcast,290,2013-10-09 17:55:00
1:15 PM,73.4,62.6,69,30.15,10.0,North,4.6,-,N/A,,Mostly Cloudy,360,2013-10-09 18:15:00
1:35 PM,73.4,62.6,69,30.14,10.0,WNW,3.5,-,N/A,,Mostly Cloudy,300,2013-10-09 18:35:00
1:55 PM,73.4,60.8,65,30.13,10.0,Calm,Calm,-,N/A,,Overcast,0,2013-10-09 18:55:00
2:15 PM,73.4,60.8,65,30.13,10.0,Calm,Calm,-,N/A,,Overcast,0,2013-10-09 19:15:00
2:35 PM,75.2,60.8,61,30.12,10.0,Calm,Calm,-,N/A,,Scattered Clouds,0,2013-10-09 19:35:00
2:55 PM,73.4,59.0,61,30.12,10.0,Calm,Calm,-,N/A,,Mostly Cloudy,0,2013-10-09 19:55:00
3:15 PM,75.2,60.8,61,30.11,10.0,Calm,Calm,-,N/A,,Partly Cloudy,0,2013-10-09 20:15:00
3:55 PM,75.2,60.8,61,30.11,10.0,East,6.9,-,N/A,,Mostly Cloudy,90,2013-10-09 20:55:00
4:15 PM,75.2,60.8,61,30.11,10.0,East,5.8,-,N/A,,Overcast,80,2013-10-09 21:15:00
4:35 PM,73.4,62.6,69,30.11,10.0,ENE,6.9,-,N/A,,Overcast,70,2013-10-09 21:35:00
4:55 PM,73.4,62.6,69,30.11,10.0,NE,4.6,-,N/A,,Scattered Clouds,50,2013-10-09 21:55:00
5:15 PM,71.6,62.6,73,30.10,10.0,NE,4.6,-,N/A,,Clear,40,2013-10-09 22:15:00
5:35 PM,71.6,62.6,73,30.10,5.0,ENE,4.6,-,N/A,,Scattered Clouds,70,2013-10-09 22:35:00
5:55 PM,71.6,62.6,73,30.11,9.0,NE,5.8,-,N/A,,Mostly Cloudy,50,2013-10-09 22:55:00
6:15 PM,69.8,62.6,78,30.11,10.0,ENE,3.5,-,N/A,,Mostly Cloudy,60,2013-10-09 23:15:00
6:55 PM,64.4,62.6,94,30.11,10.0,ENE,3.5,-,N/A,,Scattered Clouds,60,2013-10-09 23:55:00
7:15 PM,66.2,62.6,88,30.11,8.0,Calm,Calm,-,N/A,,Clear,0,2013-10-10 00:15:00
7:35 PM,62.6,62.6,100,30.12,10.0,Calm,Calm,-,N/A,,Clear,0,2013-10-10 00:35:00
7:55 PM,64.4,62.6,94,30.12,9.0,Calm,Calm,-,N/A,,Clear,0,2013-10-10 00:55:00
8:15 PM,62.6,62.6,100,30.12,7.0,Calm,Calm,-,N/A,,Clear,0,2013-10-10 01:15:00
8:35 PM,62.6,62.6,100,30.12,10.0,Calm,Calm,-,N/A,,Clear,0,2013-10-10 01:35:00
8:55 PM,62.6,62.6,100,30.12,10.0,Calm,Calm,-,N/A,,Partly Cloudy,0,2013-10-10 01:55:00
9:15 PM,62.6,62.6,100,30.12,3.0,Calm,Calm,-,N/A,,Mostly Cloudy,0,2013-10-10 02:15:00
9:35 PM,62.6,62.6,100,30.13,5.0,Calm,Calm,-,N/A,,Overcast,0,2013-10-10 02:35:00
9:55 PM,62.6,62.6,100,30.13,7.0,East,6.9,-,N/A,,Mostly Cloudy,90,2013-10-10 02:55:00
10:15 PM,60.8,59.0,94,30.13,5.0,Calm,Calm,-,N/A,,Mostly Cloudy,0,2013-10-10 03:15:00
10:35 PM,62.6,60.8,94,30.13,9.0,Calm,Calm,-,N/A,,Mostly Cloudy,0,2013-10-10 03:35:00
10:55 PM,62.6,60.8,94,30.12,8.0,Calm,Calm,-,N/A,,Overcast,0,2013-10-10 03:55:00
11:15 PM,62.6,60.8,94,30.12,9.0,Calm,Calm,-,N/A,,Overcast,0,2013-10-10 04:15:00
11:55 PM,62.6,60.8,94,30.12,7.0,Calm,Calm,-,N/A,,Overcast,0,2013-10-10 04:55:00